sat.trackr.live / text

‹ back to catalog

STARLINK-35403

NORAD 66081 · 2025-235Z

PAYLOAD ACTIVE UNKNOWN

§ Identity

Operator
Country
US
Launch date
2025-10-19
Launch site
AFETR
Launch vehicle
Mass (kg)
RCS (m²)

Purposes: comms

External: N2YO · Heavens-Above · Gunter

§ Orbital elements

Epoch: 2026-09-19T17:03:41.192352Z

Period
94.01 min
Inclination
53.1604°
Eccentricity
0.0000887
Mean motion
15.31713929 rev/d
Perigee alt
470.1 km
Apogee alt
471.3 km
Semi-major
6,848.8 km
B*
5.4648e-4
RAAN
62.1677°
Arg perigee
62.9347°
Mean anomaly
297.1745°
Rev number
5,265

§ Raw data

STARLINK-354031 66081U 25235Z   26262.71089343  .00016638  00000+0  54648-3 0  99942 66081  53.1604  62.1677 0000887  62.9347 297.1745 15.31713929 52659

JSON: /api/v1/satellites/66081 · /tle

For live sub-satellite position, see the globe view (requires WebGL).

§ Visibility from observer

Set your observer location to see the next 7 days of passes ≥ 10°. The values pass through the URL so the page stays shareable.

No JS? Fill the form by hand. The geolocation button needs JavaScript.